0 INTELSAT 1-F1 1 01317U 65028A 25039.88638069 -.00000297 00000-0 00000-0 0 9999 2 01317 5.9518 68.6201 0005388 150.0468 178.4565 1.00326329122224 0 INTELSAT 2-F1 1 02514U 66096A 25039.56701275 -.00000287 00000-0 00000-0 0 9999 2 02514 17.1174 149.1306 6348852 9.0343 358.2725 2.00582741 84917 0 INTELSAT 2-F2 1 2639U 67001A 25040.12495443 .00000051 00000-0 00000+0 0 9992 2 2639 1.9833 82.2341 0008284 195.5583 327.8090 1.00145988114320 0 INTELSAT 2-F3 1 2717U 67026A 25040.11131419 -.00000075 00000-0 00000+0 0 9992 2 2717 2.8600 70.1605 0019693 215.5959 246.2658 1.00267545115299 0 INTELSAT 2-F4 1 02969U 67094A 25039.65876617 .00000118 00000-0 00000-0 0 9997 2 02969 2.8157 79.0991 0011131 140.0338 355.8271 1.00224147110365 0 INTELSAT 3-F2 1 03623U 68116A 25039.67342883 -.00000103 00000-0 00000-0 0 9991 2 03623 5.2872 297.0150 0091052 79.8822 219.2158 0.90194190 78328 0 INTELSAT 3-F3 1 03674U 69011A 25039.57869356 -.00000180 00000-0 00000-0 0 9995 2 03674 10.7687 305.6491 0182230 352.9643 233.8070 0.84930891 62505 0 INTELSAT 3-F4 1 3947U 69045A 25040.10306054 -.00000110 00000-0 00000+0 0 9999 2 3947 5.0919 289.8512 0024240 66.8019 131.1544 0.90044662154747 0 INTELSAT 3-F6 1 04297U 70003A 25039.90062907 -.00000110 00000-0 00000-0 0 9997 2 04297 0.2397 245.2415 0011545 95.7511 133.1729 0.99159557171962 0 INTELSAT 3-F7 1 04376U 70032A 25038.89743260 -.00000007 00000-0 00000-0 0 9997 2 04376 1.1570 101.4894 0004285 205.9312 153.7569 1.00288126 42408 0 INTELSAT 3-F8 1 4478U 70055A 25040.12365123 -.00000198 00000-0 00000+0 0 9992 2 4478 4.2455 74.6133 0314373 101.1108 59.3455 1.02266058117833 0 INTELSAT 4-F2 1 4881U 71006A 25040.13129670 -.00000024 00000-0 00000+0 0 9991 2 4881 5.6241 282.3953 0012896 80.7684 276.6243 0.98835508116769 0 INTELSAT 4-F3 1 05709U 71116A 25039.66586406 .00000083 00000-0 00000-0 0 9998 2 05709 7.5874 295.4079 0010524 105.2003 183.1553 0.99622816113951 0 INTELSAT 4-F4 1 05775U 72003A 25039.67994267 .00000118 00000-0 00000-0 0 9995 2 05775 7.9041 298.6317 0001769 109.0072 196.7618 0.99827610132461 0 INTELSAT 4-F5 1 06052U 72041A 25039.12319219 -.00000327 00000-0 00000-0 0 9997 2 06052 6.9451 291.7208 0003259 299.1568 60.9055 1.00101233 41717 0 INTELSAT 4-F7 1 06796U 73058A 25039.15322584 -.00000144 00000-0 00000-0 0 9990 2 06796 8.3807 300.9272 0003892 204.8377 155.1900 0.99144261130744 0 INTELSAT 4-F8 1 7544U 74093A 25040.15114315 .00000025 00000-0 00000+0 0 9991 2 7544 9.0178 308.1429 0002626 201.6771 60.6568 0.99790498120339 0 INTELSAT 4-F1 1 07815U 75042A 25039.41990130 -.00000037 00000-0 00000-0 0 9996 2 07815 9.2891 309.6466 0011981 266.4271 93.5203 0.99261925117053 0 INTELSAT 4A-F1 1 08330U 75091A 25039.38959470 .00000117 00000-0 00000-0 0 9999 2 08330 8.9210 307.8901 0004636 253.1553 298.3647 0.99925004116530 0 INTELSAT 4A-F2 1 08620U 76010A 25038.51303633 -.00000334 00000-0 00000-0 0 9993 2 08620 8.9603 307.5133 0006069 294.8502 215.8988 0.99692331615686 0 INTELSAT 4A-F4 1 10024U 77041A 25039.58530225 -.00000312 00000-0 00000-0 0 9992 2 10024 9.8625 314.4774 0012658 262.6947 261.4690 0.99444879 42072 0 INTELSAT 4A-F3 1 10557U 78002A 25039.63745286 -.00000042 00000-0 00000-0 0 9992 2 10557 9.9273 315.9929 0003979 288.7736 300.5723 0.99918759 43810 0 INTELSAT 4A-F6 1 10778U 78035A 25039.90280109 .00000127 00000-0 00000-0 0 9994 2 10778 9.7176 315.0505 0007760 301.8798 228.5900 1.00335187117216 0 INTELSAT 502 1 12089U 80098A 25039.83586286 .00000027 00000-0 00000-0 0 9999 2 12089 11.9806 330.1336 0015002 305.3628 241.1857 0.98888198128841 0 INTELSAT 501 1 12474U 81050A 25039.84697539 .00000045 00000-0 00000-0 0 9991 2 12474 11.7072 327.8256 0005615 290.9041 250.2294 0.98849156132799 0 INTELSAT 503 1 12994U 81119A 25039.90497310 .00000047 00000-0 00000-0 0 9998 2 12994 11.9396 330.3257 0043751 255.2351 272.2535 0.99465685121790 0 INTELSAT 504 1 13083U 82017A 25039.59885139 -.00000016 00000-0 00000+0 0 9997 2 13083 12.0423 330.7817 0012822 231.9988 353.5758 0.99226366136899 0 INTELSAT 505 1 13595U 82097A 25039.61629396 -.00000241 00000-0 00000+0 0 9997 2 13595 12.7406 334.5426 0017991 24.6257 158.0532 0.98407747123236 0 INTELSAT 506 1 14077U 83047A 25039.91114162 .00000062 00000-0 00000+0 0 9992 2 14077 13.0029 336.9728 0040041 338.6325 216.0158 0.99157816119182 0 INTELSAT 507 1 14421U 83105A 25039.11045600 -.00000195 00000-0 00000-0 0 9991 2 14421 12.5658 334.5002 0002331 65.7606 126.9196 0.99700713132306 0 INTELSAT 508 1 14786U 84023A 25039.91157602 -.00000061 00000-0 00000-0 0 9991 2 14786 14.0906 341.1056 0018110 254.7506 298.2050 0.97290827 41160 0 INTELSAT 510 1 15629U 85025A 25039.52844976 -.00000109 00000-0 00000-0 0 9998 2 15629 14.1462 343.8888 0031825 4.4730 187.0959 0.98281793110325 0 INTELSAT 511 1 15873U 85055A 25039.84407211 -.00000169 00000-0 00000-0 0 9990 2 15873 13.6195 342.3305 0010586 79.3930 106.9682 1.00073280119578 0 INTELSAT 512 1 16101U 85087A 25039.83586286 -.00000023 00000-0 00000+0 0 9997 2 16101 14.4074 347.3369 0011805 311.0903 227.1300 0.99111705125420 0 NSS 513 (INTELSAT 513) 1 19121U 88040A 25039.87873521 -.00000018 00000-0 00000-0 0 9994 2 19121 14.8623 352.4023 0009844 101.8454 261.9991 0.98570692109684 0 INTELSAT 515 1 19772U 89006A 25039.11262801 -.00000197 00000-0 00000-0 0 9997 2 19772 14.9539 357.8838 0018916 109.5596 71.0954 0.99105530119729 0 INTELSAT 602 1 20315U 89087A 25039.66833006 -.00000138 00000-0 00000-0 0 9997 2 20315 14.0454 11.0621 0005824 214.0157 343.1407 0.99008739126434 0 INTELSAT 603 1 20523U 90021A 25040.01574569 .00000064 00000-0 00000+0 0 9991 2 20523 13.6996 12.8396 0003989 52.4799 310.5496 0.99477887120440 0 INTELSAT 604 1 20667U 90056A 25039.27049604 -.00000193 00000-0 00000-0 0 9996 2 20667 14.2823 13.5303 0006210 297.7680 241.3258 0.98434739 41610 0 INTELSAT 605 1 21653U 91055A 25039.18135043 -.00000244 00000-0 00000-0 0 9992 2 21653 13.0631 21.0756 0002774 226.2628 302.0246 0.99329173122029 0 INTELSAT 601 1 21765U 91075A 25039.18517317 -.00000111 00000-0 00000-0 0 9999 2 21765 12.8968 20.4264 0002541 283.5717 266.4563 0.99594707121455 0 NSS K (INTELSAT K) 1 21989U 92032A 25038.98374024 -.00000067 00000-0 00000-0 0 9994 2 21989 14.5732 15.8988 0079833 349.1299 198.2954 0.97180446127680 0 INTELSAT 701 1 22871U 93066A 25039.18882215 -.00000023 00000-0 00000-0 0 9994 2 22871 9.7896 50.5221 0001512 299.3075 240.2907 0.99320656114190 0 INTELSAT 702 1 23124U 94034A 25039.05524284 .00000045 00000-0 00000-0 0 9990 2 23124 10.0308 48.9846 0010779 16.5249 163.2720 0.98936169125994 0 INTELSAT 2 (PAS 2) 1 23175U 94040A 25040.11982848 .00000014 00000-0 00000+0 0 9991 2 23175 11.3685 38.4364 0002415 329.8451 209.4075 0.99192471110793 0 NSS 703 (INTELSAT 703) 1 23305U 94064A 25039.90511172 -.00000274 00000-0 00000-0 0 9995 2 23305 10.8323 40.6631 0009356 258.7336 285.6739 0.99304051110833 0 INTELSAT 704 1 23461U 95001A 25039.66784829 -.00000004 00000-0 00000-0 0 9995 2 23461 10.9877 39.4564 0010188 169.7953 16.2463 0.99181428109586 0 INTELSAT 705 1 23528U 95013A 25039.90511172 -.00000210 00000-0 00000-0 0 9997 2 23528 10.8061 41.6235 0016615 103.5375 78.3226 0.98973436108659 0 INTELSAT 706 1 23571U 95023A 25039.16433617 -.00000220 00000-0 00000-0 0 9992 2 23571 9.9403 48.9990 0005354 276.4028 224.3457 0.99054062108438 0 INTELSAT 4 (PAS 4) 1 23636U 95040A 25039.89116067 -.00000132 00000-0 00000-0 0 9992 2 23636 10.9945 44.2620 0028804 225.3939 310.8404 0.97127560106355 0 INTELSAT 3R (PAS 3R) 1 23764U 96002A 25039.18482565 -.00000171 00000-0 00000-0 0 9997 2 23764 10.8593 40.6174 0014781 266.7730 261.1543 0.99090837105894 0 INTELSAT 707 1 23816U 96015A 25039.95962091 -.00000159 00000-0 00000+0 0 9996 2 23816 9.4842 54.7177 0069958 345.7860 31.8464 0.98480801105101 0 INTELSAT 24 (AMOS 1) 1 23865U 96030B 25038.38635110 -.00000120 00000-0 00000-0 0 9991 2 23865 11.7118 37.8959 0010252 198.5078 340.3784 0.97117822103778 0 INTELSAT 709 1 23915U 96035A 25040.12599700 .00000064 00000-0 00000+0 0 9996 2 23915 9.6784 52.0010 0017332 223.6794 335.7678 0.99177146104494 0 INTELSAT 26 (JCSAT 4) 1 24732U 97007A 25039.18699766 -.00000131 00000-0 00000-0 0 9998 2 24732 11.5201 33.0268 0013542 272.9915 274.4333 0.98908091102162 0 INTELSAT 801 1 24742U 97009A 25039.66633013 -.00000068 00000-0 00000-0 0 9996 2 24742 11.4027 36.8745 0009903 343.0772 205.2368 0.98735706101784 0 INTELSAT 802 1 24846U 97031A 25039.66006965 -.00000189 00000-0 00000-0 0 9990 2 24846 10.3927 46.9625 0026786 277.9288 231.8178 0.98110494100098 0 INTELSAT 5 (PAS 5) 1 24916U 97046A 25039.95901275 -.00000208 00000-0 00000+0 0 9995 2 24916 9.3198 53.5391 0005747 221.5377 154.7089 0.99036421100649 0 NSS 5 (INTELSAT 803) 1 24957U 97053A 25039.65490690 -.00000206 00000-0 00000-0 0 9998 2 24957 9.4644 52.2289 0006586 225.8939 270.8423 0.99106752100069 0 INTELSAT 804 1 25110U 97083A 25039.94884774 -.00000090 00000-0 00000+0 0 9995 2 25110 12.6453 21.1759 0005784 351.7888 1.0727 1.00151606 99477 0 NSS 806 (INTELSAT 806) 1 25239U 98014A 25039.12505192 .00000075 00000-0 00000-0 0 9999 2 25239 5.8624 75.6543 0002277 199.6592 330.3129 0.99075163 42071 0 INTELSAT 805 1 25371U 98037A 25039.52938042 .00000048 00000-0 00000-0 0 9999 2 25371 6.6517 71.3985 0012154 158.7858 343.8556 0.99472241 97450 0 INTELSAT 7 (PAS 7) 1 25473U 98052A 25039.64414453 -.00000182 00000-0 00000-0 0 9997 2 25473 9.3162 56.6687 0008484 195.2654 302.1461 0.98212074 95787 0 INTELSAT 8 (PAS 8) 1 25522U 98065A 25039.68331802 -.00000171 00000-0 00000-0 0 9994 2 25522 7.8737 68.7059 0281818 292.0433 231.2513 0.95185816 40112 0 INTELSAT 6B (PAS 6B) 1 25585U 98075A 25039.95371304 -.00000105 00000-0 00000+0 0 9991 2 25585 11.5513 34.4392 0015992 168.0292 198.6496 0.99151690 95111 0 INTELSAT 9 (PAS 9) 1 26451U 00043A 25040.12591012 -.00000024 00000-0 00000+0 0 9993 2 26451 9.3032 53.6349 0003021 272.0749 285.3044 1.00271628 89903 0 INTELSAT 12 (PAS 12) 1 26590U 00068A 25039.18879083 .00000069 00000-0 00000-0 0 9994 2 26590 7.1055 69.9168 0013509 202.7287 354.5762 0.99025462 46602 0 INTELSAT 1R (PAS 1R) 1 26608U 00072A 25039.89011655 -.00000232 00000-0 00000-0 0 9993 2 26608 6.8440 70.1693 0010012 254.9760 92.0520 0.98971380 36348 0 INTELSAT 10 (PAS 10) 1 26766U 01019A 25040.12591012 -.00000020 00000-0 00000+0 0 9992 2 26766 7.8927 64.2876 0004197 249.9328 296.6484 1.00271949 86986 0 INTELSAT 901 1 26824U 01024A 25040.13933522 -.00000212 00000-0 00000+0 0 9993 2 26824 0.0223 109.6314 0002205 240.4265 172.0648 1.00266910 86644 0 INTELSAT 902 1 26900U 01039A 25040.03147105 -.00000294 00000-0 00000+0 0 9997 2 26900 4.8656 77.8109 0004551 247.6636 135.1111 1.00271020 85828 0 INTELSAT 904 1 27380U 02007A 25039.96413870 -.00000227 00000-0 00000+0 0 9997 2 27380 5.6801 75.0846 0003550 259.3829 122.3950 1.00270500 84147 0 INTELSAT 903 1 27403U 02016A 25039.89750139 -.00000205 00000-0 00000+0 0 9993 2 27403 6.4711 72.2197 0004168 216.5424 168.4293 0.99022888 83480 0 INTELSAT 905 1 27438U 02027A 25039.96509439 -.00000197 00000-0 00000+0 0 9996 2 27438 5.5070 75.7203 0002985 253.4772 133.0290 1.00271189 83021 0 INTELSAT 906 1 27513U 02041A 25040.12556259 .00000002 00000-0 00000+0 0 9992 2 27513 4.5441 79.0158 0004592 212.4087 317.3639 1.00271843 82022 0 INTELSAT 907 1 27683U 03007A 25040.09419874 -.00000027 00000-0 00000+0 0 9998 2 27683 4.4701 78.3789 0001644 58.2281 302.8410 0.99156271 80250 0 INTELSAT 1002 1 28358U 04022A 25039.88933388 -.00000019 00000-0 00000-0 0 9994 2 28358 0.0400 263.1121 0000614 85.6790 109.5978 1.00270760 75615 0 INTELSAT 11 (PAS 11) 1 32253U 07044B 25040.10114478 -.00000279 00000-0 00000+0 0 9995 2 32253 2.2787 84.8374 0004311 239.3672 168.6177 1.00270834 63581 0 INTELSAT 25(PROTOSTAR 1) 1 33153U 08034A 25040.09558707 -.00000234 00000-0 00000+0 0 9991 2 33153 1.4331 86.5162 0003109 230.5435 185.2566 1.00272581 60692 0 INTELSAT 14 1 36097U 09064A 25039.88959527 -.00000281 00000-0 00000-0 0 9998 2 36097 0.0152 76.3337 0002536 241.7670 96.3678 1.00272005 55654 0 INTELSAT 15 1 36106U 09067A 25039.91539876 -.00000193 00000-0 00000-0 0 9999 2 36106 0.0257 96.9348 0002514 230.9410 226.0694 1.00270279 36288 0 INTELSAT 16 1 36397U 10006A 25040.11780661 -.00000253 00000-0 00000+0 0 9996 2 36397 0.0149 79.3858 0002304 235.9195 150.3342 1.00271790 54775 0 INTELSAT 17 1 37238U 10065B 25039.91166291 -.00000010 00000-0 00000-0 0 9991 2 37238 0.0033 150.9669 0002439 175.3941 207.0698 1.00271604 48303 0 INTELSAT NEW DAWN 1 37392U 11016A 25040.17560122 -.00000039 00000-0 00000+0 0 9990 2 37392 0.5284 89.4533 0004332 224.3092 248.6146 1.00144686 50579 0 INTELSAT 18 1 37834U 11056A 25039.86283609 .00000045 00000-0 00000-0 0 9998 2 37834 0.0165 89.9759 0001603 240.6360 299.2041 1.00271553 48864 0 INTELSAT 22 1 38098U 12011A 25039.91279235 -.00000067 00000-0 00000-0 0 9994 2 38098 0.0115 81.3505 0001804 251.3718 207.2090 1.00271466 2244 0 INTELSAT 19 1 38356U 12030A 25040.10209461 -.00000066 00000-0 00000+0 0 9997 2 38356 0.0186 92.0140 0003497 233.7719 16.3780 1.00271505 46560 0 INTELSAT 20 1 38740U 12043A 25039.84697539 -.00000032 00000-0 00000-0 0 9998 2 38740 0.0227 106.1784 0002321 74.5595 331.8276 1.00270237 45804 0 INTELSAT 21 1 38749U 12045A 25040.10669674 -.00000294 00000-0 00000+0 0 9998 2 38749 0.0614 268.3517 0001983 50.7390 160.7385 1.00271301 45690 0 INTELSAT 23 1 38867U 12057A 25040.10669674 -.00000294 00000-0 00000+0 0 9992 2 38867 0.0300 158.9128 0001368 261.2365 64.6541 1.00270997 45161 0 INTELSAT 30 1 40271U 14062A 25039.21288052 -.00000157 00000-0 00000-0 0 9998 2 40271 0.0124 62.9410 0000594 242.1352 175.0510 1.00274880 1833 0 INTELSAT 34 1 40874U 15039A 25039.17309678 -.00000291 00000-0 00000-0 0 9994 2 40874 0.0182 90.2198 0000847 156.7808 258.3154 1.00276298 34672 0 INTELSAT 29E 1 41308U 16004A 25039.61432616 -.00000352 00000-0 00000-0 0 9996 2 41308 5.2565 76.2850 0001536 358.9054 24.6868 1.00629040 33314 0 INTELSAT 31 1 41581U 16035A 25039.09386184 -.00000156 00000-0 00000-0 0 9995 2 41581 0.0133 113.0930 0001923 79.6015 244.4452 1.00271798 31721 0 INTELSAT 36 1 41747U 16053A 25040.09072373 -.00000034 00000-0 00000+0 0 9997 2 41747 0.0095 46.0890 0001626 275.6650 278.8088 1.00276059 30994 0 INTELSAT 33E 1 41748U 16053B 25039.91887398 -.00000341 00000-0 00000-0 0 9990 2 41748 0.2968 95.9941 0023956 173.5549 303.4342 1.00361688 31306 0 INTELSAT 32E 1 41945U 17007B 25039.96135853 -.00000277 00000-0 00000+0 0 9993 2 41945 0.0129 92.0673 0000206 155.8821 194.2350 1.00272413 29300 0 INTELSAT 35E 1 42818U 17041A 25040.09558707 -.00000247 00000-0 00000+0 0 9991 2 42818 0.0266 106.1048 0002745 219.0345 174.2216 1.00269252 27864 0 INTELSAT 37E 1 42950U 17059A 25039.89489152 -.00000149 00000-0 00000-0 0 9992 2 42950 0.0123 97.5855 0002714 208.1065 137.6662 1.00271139 27119 0 AZERSPACE 2/INTELSAT 38 1 43632U 18074A 25039.92336590 .00000128 00000-0 00000-0 0 9995 2 43632 0.0182 71.1226 0001511 244.6198 201.0096 1.00270515 23501 0 INTELSAT 39 1 44476U 19049B 25040.12512819 .00000025 00000-0 00000+0 0 9994 2 44476 0.0293 98.3373 0000705 66.0812 82.0267 1.00270064 20185 0 INTELSAT 40E 1 56174U 23052A 25036.35808909 -.00000172 00000-0 00000-0 0 9994 2 56174 0.0131 117.2689 0001082 169.9934 246.3741 1.00270408 6843